FW5399 Weather Reports


time (UTC)temp
C
wind
direction
speed
KPH
gust
KPH
rain 1hr
cm
rain 24hr
cm
rain mn
cm
humidity
%
barometer
mb
20260506034410 18 125 1.6 6.4 0.00 0.61 0.61 87 1028.8
20260506033908 18 172 1.6 6.4 0.00 0.61 0.61 87 1028.8
20260506033407 19 156 1.6 6.4 0.00 0.61 0.61 85 1028.8
20260506032908 19 86 1.6 3.2 0.00 0.61 0.61 85 1028.6
20260506032833 19 132 1.6 8.0 0.00 0.61 0.61 84 1028.7
20260506031909 19 170 3.2 8.0 0.00 0.61 0.61 85 1028.7
20260506031410 20 174 1.6 8.0 0.00 0.61 0.61 85 1028.7
20260506031311 20 207 1.6 8.0 0.00 0.61 0.61 84 1028.7
20260506030407 20 176 1.6 9.7 0.00 0.61 0.61 85 1028.6
20260506030321 20 111 1.6 9.7 0.00 0.61 0.61 83 1028.7
20260506025409 20 217 1.6 9.7 0.00 0.61 0.61 82 1028.7
20260506024909 20 151 3.2 11.3 0.00 0.61 0.61 84 1028.8
20260506024406 20 162 3.2 11.3 0.00 0.61 0.61 84 1028.7
20260506023904 20 167 4.8 11.3 0.00 0.61 0.61 84 1028.7
20260506023404 20 224 3.2 11.3 0.00 0.61 0.61 85 1028.7
20260506022904 20 182 3.2 11.3 0.00 0.61 0.61 85 1028.7
20260506022404 20 163 3.2 11.3 0.00 0.61 0.61 85 1028.7
20260506022313 20 32 3.2 11.3 0.00 0.61 0.61 86 1028.6
20260506021405 20 153 3.2 9.7 0.00 0.61 0.61 85 1028.6
20260506021304 20 185 3.2 12.9 0.00 0.61 0.61 86 1028.6
20260506020802 19 172 3.2 12.9 0.00 0.61 0.61 85 1028.7
20260506020255 19 170 3.2 14.5 0.00 0.61 0.61 88 1028.7
20260506015405 19 103 4.8 14.5 0.00 0.61 0.61 88 1028.7
20260506014903 18 178 4.8 16.1 0.00 0.61 0.61 87 1028.6
20260506014408 18 161 4.8 16.1 0.00 0.61 0.61 88 1028.7
20260506014313 18 135 4.8 11.3 0.00 0.61 0.61 88 1028.8
20260506013403 18 74 4.8 14.5 0.00 0.61 0.61 89 1028.9
20260506013057 18 171 4.8 14.5 0.00 0.61 0.61 87 1028.8
20260506012317 18 178 4.8 12.9 0.00 0.61 0.61 89 1029.1
20260506011403 18 185 4.8 14.5 0.00 0.61 0.61 91 1029.1
20260506010913 18 125 3.2 14.5 0.00 0.61 0.61 91 1029.1
20260506010359 18 191 4.8 11.3 0.00 0.61 0.61 91 1029.1
20260506005857 18 140 3.2 9.7 0.00 0.61 0.61 90 1029.1
20260506005358 18 173 3.2 9.7 0.00 0.61 0.61 91 1029.2
20260506004859 18 138 3.2 9.7 0.00 0.61 0.61 93 1029.2
20260506004744 18 163 3.2 9.7 0.00 0.61 0.61 92 1029.4
20260506003857 17 141 1.6 9.7 0.00 0.61 0.61 93 1029.4
20260506003357 17 186 1.6 9.7 0.00 0.61 0.61 94 1029.5
20260506002855 17 175 1.6 6.4 0.00 0.61 0.61 94 1029.5
20260506002353 17 156 1.6 6.4 0.03 0.61 0.61 95 1029.6
20260506002259 17 167 1.6 6.4 0.03 0.61 0.61 95 1029.7
20260506001352 17 190 1.6 8.0 0.03 0.61 0.61 96 1029.7
20260506000850 17 181 1.6 8.0 0.05 0.61 0.61 96 1029.9
20260506000809 17 199 1.6 6.4 0.08 0.61 0.61 96 1030.1
20260506000254 17 184 1.6 4.8 0.13 0.61 0.61 96 1030.1
20260505235338 17 143 1.6 4.8 0.15 0.61 0.61 95 1030.0
20260505234833 17 229 0.0 1.6 0.15 0.61 0.61 96 1030.2
20260505234512 17 242 0.0 1.6 0.15 0.61 0.61 96 1030.2
20260505233312 16 279 0.0 0.0 0.15 0.61 0.61 96 1030.3
20260505232805 16 279 0.0 0.0 0.15 0.61 0.61 97 1030.5
20260505232720 16 279 0.0 0.0 0.13 0.58 0.58 96 1030.4
20260505231752 16 279 0.0 0.0 0.13 0.58 0.58 95 1030.6
20260505231636 16 279 0.0 0.0 0.10 0.56 0.56 95 1030.6
20260505231145 16 279 0.0 0.0 0.08 0.53 0.53 95 1030.6
20260505230234 16 279 0.0 0.0 0.05 0.51 0.51 95 1030.6
20260505225728 16 279 0.0 0.0 0.03 0.48 0.48 95 1030.7
20260505225635 16 279 0.0 0.0 0.00 0.46 0.46 95 1030.6
20260505224716 16 279 0.0 0.0 0.00 0.46 0.46 95 1030.6
20260505224212 16 279 0.0 0.0 0.00 0.46 0.46 95 1030.6
20260505223703 16 279 0.0 0.0 0.00 0.46 0.46 95 1030.6
20260505223159 16 279 0.0 0.0 0.00 0.46 0.46 95 1030.7
20260505222652 16 279 0.0 0.0 0.00 0.46 0.46 96 1030.7
20260505222146 16 279 0.0 0.0 0.00 0.46 0.46 95 1030.8
20260505221643 16 279 0.0 0.0 0.00 0.46 0.46 96 1030.9
20260505221134 16 279 0.0 0.0 0.00 0.46 0.46 96 1030.9
20260505220628 16 304 0.0 0.0 0.00 0.46 0.46 97 1031.0
20260505220124 16 304 0.0 0.0 0.00 0.46 0.46 97 1031.1
20260505215805 16 304 0.0 0.0 0.00 0.46 0.46 97 1030.9
20260505214604 16 303 0.0 0.0 0.00 0.46 0.46 98 1030.9
20260505214059 16 304 0.0 0.0 0.00 0.46 0.46 98 1030.9
20260505213552 16 303 0.0 0.0 0.00 0.46 0.46 98 1031.0
20260505213444 15 303 0.0 0.0 0.00 0.46 0.46 98 1031.0
20260505212542 15 303 0.0 0.0 0.00 0.46 0.46 99 1031.0
20260505212042 15 303 0.0 0.0 0.00 0.46 0.46 99 1031.1
20260505211544 15 303 0.0 0.0 0.00 0.46 0.46 99 1031.2
20260505211042 15 303 0.0 0.0 0.00 0.46 0.46 100 1031.2
20260505210545 15 304 0.0 0.0 0.00 0.46 0.46 100 1031.2
20260505210043 15 304 0.0 0.0 0.00 0.46 0.46 100 1031.2
20260505205537 15 310 0.0 0.0 0.00 0.46 0.46 100 1031.2
20260505205459 14 310 0.0 0.0 0.00 0.46 0.46 100 1031.1
20260505204535 14 310 0.0 0.0 0.00 0.46 0.46 100 1031.1
20260505204035 14 310 0.0 0.0 0.00 0.46 0.46 100 1031.2
20260505203925 14 310 0.0 0.0 0.00 0.46 0.46 100 1031.3
20260505203032 14 310 0.0 0.0 0.00 0.46 0.46 100 1031.2
20260505202925 14 310 0.0 0.0 0.00 0.46 0.46 100 1031.2
20260505202033 13 310 0.0 0.0 0.00 0.46 0.46 100 1031.2
20260505201532 13 310 0.0 0.0 0.00 0.46 0.46 100 1031.2
20260505201031 13 310 0.0 0.0 0.00 0.46 0.46 100 1031.2
20260505200925 13 310 0.0 0.0 0.00 0.46 0.46 100 1031.1
20260505200034 13 310 0.0 0.0 0.00 0.46 0.46 100 1031.0
20260505195529 13 310 0.0 0.0 0.00 0.46 0.46 100 1031.0
20260505195446 13 310 0.0 0.0 0.00 0.46 0.46 100 1030.9
20260505194526 13 310 0.0 0.0 0.00 0.46 0.46 100 1030.8
20260505194023 13 310 0.0 0.0 0.03 0.46 0.46 100 1030.8
20260505193520 13 310 0.0 0.0 0.03 0.46 0.46 100 1030.8
20260505193431 13 310 0.0 0.0 0.03 0.46 0.46 100 1030.7
20260505192522 13 310 0.0 0.0 0.03 0.46 0.46 100 1030.7
20260505192020 13 310 0.0 0.0 0.05 0.46 0.46 100 1030.7
20260505191913 13 310 0.0 0.0 0.05 0.46 0.46 100 1030.6
20260505191018 13 310 0.0 0.0 0.05 0.46 0.46 100 1030.6
20260505190517 13 310 0.0 0.0 0.05 0.46 0.46 100 1030.5
20260505190425 13 310 0.0 0.0 0.05 0.46 0.46 100 1030.5
20260505185516 13 310 0.0 0.0 0.05 0.46 0.46 100 1030.5
20260505185015 13 310 0.0 0.0 0.05 0.46 0.46 100 1030.6
20260505184515 13 310 0.0 0.0 0.08 0.46 0.46 100 1030.6
20260505184015 13 310 0.0 0.0 0.05 0.43 0.46 100 1030.5
20260505183902 13 310 0.0 0.0 0.10 0.43 0.43 100 1030.7
20260505183015 13 310 0.0 0.0 0.10 0.43 0.43 100 1030.6
20260505182515 13 310 0.0 0.0 0.13 0.43 0.43 100 1030.6
20260505182021 13 310 0.0 0.0 0.10 0.43 0.43 100 1030.7
20260505181856 13 310 0.0 0.0 0.10 0.43 0.43 100 1030.5
20260505181022 13 310 0.0 1.6 0.10 0.43 0.43 100 1030.5
20260505180521 13 310 0.0 1.6 0.10 0.43 0.43 100 1030.7
20260505180019 13 292 0.0 0.0 0.13 0.43 0.43 100 1030.6
20260505175521 13 291 0.0 0.0 0.15 0.43 0.43 99 1030.5
20260505175443 13 291 0.0 0.0 0.15 0.41 0.41 100 1030.4
20260505174512 13 291 0.0 0.0 0.15 0.38 0.38 99 1030.5
20260505174011 13 291 0.0 0.0 0.15 0.38 0.38 99 1030.4
20260505173508 13 291 0.0 1.6 0.10 0.33 0.36 99 1030.6
20260505173007 13 291 0.0 1.6 0.10 0.33 0.33 99 1030.6
20260505172506 13 291 0.0 1.6 0.08 0.33 0.33 99 1030.5
20260505172008 13 291 0.0 1.6 0.08 0.33 0.33 99 1030.5
20260505171505 12 291 0.0 0.0 0.08 0.33 0.33 99 1030.5
20260505171005 12 291 0.0 0.0 0.08 0.33 0.33 99 1030.5
20260505170504 12 289 0.0 0.0 0.08 0.33 0.33 99 1030.6
20260505170009 12 289 0.0 0.0 0.05 0.30 0.30 99 1030.5
20260505165505 12 289 0.0 0.0 0.03 0.25 0.28 99 1030.5
20260505165005 12 289 0.0 0.0 0.00 0.23 0.23 99 1030.4
20260505164722 12 289 0.0 0.0 0.00 0.23 0.23 99 1030.4
20260505163955 12 289 0.0 1.6 0.00 0.23 0.23 99 1030.4
20260505163450 12 289 0.0 1.6 0.00 0.23 0.23 99 1030.3
20260505162943 12 330 0.0 0.0 0.00 0.23 0.23 99 1030.3
20260505162437 12 331 0.0 0.0 0.00 0.23 0.23 99 1030.4
20260505161934 12 331 0.0 0.0 0.00 0.23 0.23 99 1030.3
20260505161425 12 331 0.0 0.0 0.00 0.23 0.23 99 1030.3
20260505160920 12 331 0.0 0.0 0.00 0.23 0.23 99 1030.3
20260505160413 12 331 0.0 0.0 0.00 0.23 0.23 99 1030.3
20260505160245 12 331 0.0 0.0 0.00 0.23 0.23 99 1030.4
20260505153338 12 331 0.0 1.6 0.00 0.23 0.23 99 1030.5
20260505152832 12 331 0.0 1.6 0.00 0.23 0.23 99 1030.6
20260505152326 12 343 0.0 0.0 0.00 0.23 0.23 99 1030.7
20260505151820 12 343 0.0 1.6 0.03 0.23 0.23 99 1030.7
20260505151654 12 343 0.0 1.6 0.03 0.23 0.23 99 1030.7
20260505150808 12 332 0.0 0.0 0.03 0.23 0.23 99 1030.8
20260505150310 12 333 0.0 0.0 0.03 0.23 0.23 99 1030.9
20260505140205 13 326 0.0 0.0 0.15 0.23 0.23 99 1031.5
20260505130203 12 288 0.0 0.0 0.05 0.05 0.05 99 1032.0
20260505124702 12 307 0.0 0.0 0.05 0.05 0.05 99 1032.0
20260505124200 12 307 0.0 0.0 0.05 0.05 0.05 99 1032.1
20260505123658 12 307 0.0 0.0 0.00 0.00 0.03 99 1032.1
20260505123206 12 307 0.0 0.0 0.00 0.00 0.00 99 1032.1
20260505122657 12 307 0.0 0.0 0.00 0.00 0.00 99 1032.2
20260505122154 12 307 0.0 0.0 0.00 0.00 0.00 99 1032.1
20260505121700 12 307 0.0 0.0 0.00 0.00 0.00 99 1032.1
20260505121152 12 307 0.0 0.0 0.00 0.00 0.00 99 1032.2
20260505120653 12 306 0.0 0.0 0.00 0.00 0.00 99 1032.1
20260505120154 12 306 0.0 0.0 0.00 0.00 0.00 99 1032.1
20260505115649 12 306 0.0 0.0 0.00 0.00 0.00 99 1032.1
20260505115142 12 306 0.0 0.0 0.00 0.00 0.00 99 1032.0
20260505114636 12 306 0.0 0.0 0.00 0.00 0.00 99 1032.0
20260505114530 12 306 0.0 0.0 0.00 0.00 0.00 99 1032.1
20260505113624 12 307 0.0 0.0 0.00 0.00 0.00 99 1032.1
20260505113118 12 307 0.0 0.0 0.00 0.00 0.00 98 1032.3
20260505112614 12 307 0.0 0.0 0.00 0.00 0.00 99 1032.3
20260505112106 12 306 0.0 0.0 0.00 0.00 0.00 99 1032.4
20260505111606 11 307 0.0 0.0 0.00 0.00 0.00 99 1032.4
20260505111055 11 307 0.0 0.0 0.00 0.00 0.00 99 1032.4
20260505110600 11 307 0.0 0.0 0.00 0.00 0.00 99 1032.3
20260505101954 11 307 0.0 0.0 0.00 0.00 0.00 97 1032.5
20260505101902 11 307 0.0 0.0 0.00 0.00 0.00 97 1032.5
20260505100942 11 307 0.0 0.0 0.00 0.00 0.00 97 1032.5
20260505100436 11 307 0.0 0.0 0.00 0.00 0.00 96 1032.6
20260505095932 11 307 0.0 0.0 0.00 0.00 0.00 96 1032.5
20260505095821 11 307 0.0 0.0 0.00 0.00 0.00 96 1032.6
20260505095108 12 307 0.0 0.0 0.00 0.00 0.00 96 1032.5
20260505093922 12 307 0.0 0.0 0.00 0.00 0.00 96 1032.5
20260505093422 12 307 0.0 0.0 0.00 0.00 0.00 97 1032.5
20260505092922 13 307 0.0 0.0 0.00 0.00 0.00 96 1032.5
20260505092417 13 307 0.0 0.0 0.00 0.00 0.00 96 1032.3
20260505091917 13 307 0.0 0.0 0.00 0.00 0.00 97 1032.4
20260505091416 13 307 0.0 0.0 0.00 0.00 0.00 97 1032.4
20260505090914 13 306 0.0 0.0 0.00 0.00 0.00 97 1032.5
20260505090414 13 307 0.0 0.0 0.00 0.00 0.00 96 1032.5
20260505090309 13 307 0.0 0.0 0.00 0.00 0.00 96 1032.6
20260505085414 13 307 0.0 0.0 0.00 0.00 0.00 96 1032.4
20260505084912 13 307 0.0 0.0 0.00 0.00 0.00 96 1032.5
20260505084412 13 307 0.0 0.0 0.00 0.00 0.00 96 1032.5
20260505083913 13 307 0.0 0.0 0.00 0.00 0.00 96 1032.4
20260505083412 13 307 0.0 0.0 0.00 0.00 0.00 96 1032.4
20260505082911 13 307 0.0 0.0 0.00 0.00 0.00 96 1032.4
20260505082413 13 307 0.0 0.0 0.00 0.00 0.00 96 1032.4
20260505081912 13 307 0.0 0.0 0.00 0.00 0.00 96 1032.4
20260505081413 13 306 0.0 0.0 0.00 0.00 0.00 96 1032.4
20260505080910 13 307 0.0 0.0 0.00 0.00 0.00 96 1032.4
20260505080418 13 307 0.0 0.0 0.00 0.00 0.00 96 1032.4
20260505075916 14 307 0.0 0.0 0.00 0.00 0.00 96 1032.5
20260505075752 14 307 0.0 0.0 0.00 0.00 0.00 96 1032.3
20260505074908 14 307 0.0 0.0 0.00 0.00 0.00 95 1032.3
20260505074547 14 306 0.0 0.0 0.00 0.00 0.00 95 1032.4
20260505073409 14 307 0.0 0.0 0.00 0.00 0.00 95 1032.3
20260505073255 14 307 0.0 0.0 0.00 0.00 0.00 95 1032.4
20260505072408 14 307 0.0 0.0 0.00 0.00 0.00 95 1032.4
20260505071913 14 307 0.0 0.0 0.00 0.00 0.00 95 1032.3
20260505071408 14 307 0.0 0.0 0.00 0.00 0.00 95 1032.3
20260505070909 14 307 0.0 0.0 0.00 0.00 0.00 95 1032.3
20260505070742 14 307 0.0 0.0 0.00 0.00 0.00 95 1032.2
20260505065859 14 307 0.0 0.0 0.00 0.00 0.00 95 1032.2
20260505065354 15 307 0.0 0.0 0.00 0.00 0.00 95 1032.3
20260505064847 15 307 0.0 0.0 0.00 0.00 0.00 95 1032.2
20260505064342 15 307 0.0 0.0 0.00 0.00 0.00 95 1032.2
20260505063835 15 307 0.0 0.0 0.00 0.00 0.00 95 1032.2
20260505063329 15 307 0.0 0.0 0.00 0.00 0.00 95 1032.2
20260505062823 15 307 0.0 0.0 0.00 0.00 0.00 95 1032.3
20260505062322 15 307 0.0 0.0 0.00 0.00 0.00 94 1032.1
20260505061812 15 307 0.0 0.0 0.00 0.00 0.00 94 1032.2
20260505061305 15 307 0.0 0.0 0.00 0.00 0.00 94 1032.2
20260505060800 15 307 0.0 0.0 0.00 0.00 0.00 93 1032.1
20260505060253 15 307 0.0 0.0 0.00 0.00 0.00 93 1032.1
20260505055747 15 307 0.0 0.0 0.00 0.00 0.00 93 1032.0
20260505055242 15 307 0.0 0.0 0.00 0.00 0.00 93 1032.0
20260505054735 15 307 0.0 0.0 0.00 0.00 0.00 93 1032.0
20260505054229 16 307 0.0 0.0 0.00 0.00 0.00 92 1031.9
20260505053723 16 307 0.0 0.0 0.00 0.00 0.00 92 1031.9
20260505053217 16 307 0.0 0.0 0.00 0.00 0.00 92 1031.9
20260505052711 16 307 0.0 0.0 0.00 0.00 0.00 92 1031.8
20260505052204 16 307 0.0 0.0 0.00 0.00 0.00 91 1031.8
20260505051659 16 308 0.0 0.0 0.00 0.00 0.00 91 1031.7
20260505051153 16 308 0.0 0.0 0.00 0.00 0.00 91 1031.8
20260505051043 16 308 0.0 0.0 0.00 0.00 0.00 90 1031.6
20260505050142 17 308 0.0 0.0 0.00 0.00 0.00 90 1031.7
20260505041547 18 309 0.0 0.0 0.00 0.00 0.00 85 1031.8
20260505041042 18 309 0.0 0.0 0.00 0.00 0.00 85 1031.8
20260505040911 18 309 0.0 0.0 0.00 0.00 0.00 84 1031.8
20260505040030 19 309 0.0 0.0 0.00 0.00 0.00 83 1031.8
20260505035526 19 309 0.0 0.0 0.00 0.00 0.00 82 1031.9
20260505035025 19 309 0.0 0.0 0.00 0.00 0.00 80 1031.9